Regional Weather Roundup
Issued by NWS

Home | Current Version | Previous Version | Text Only | Print | Product List | Glossary Off
Versions: 1 2 3 4 5 6 7 8 9 10 11 12 13 14 15 16 17 18 19 20 21 22 23 24 25 26 27 28 29 30 31 32 33 34 35 36 37 38 39 40 41 42 43 44 45 46 47 48 49 50

000
ASUS43 KLOT 240103
RWRIL

ILLINOIS REGIONAL WEATHER ROUNDUP
NATIONAL WEATHER SERVICE CHICAGO/ROMEOVILLE IL
800 PM CDT SUN APR 23 2017

NOTE: "FAIR" INDICATES FEW OR NO CLOUDS BELOW 12,000 FEET WITH NO
SIGNIFICANT WEATHER AND/OR OBSTRUCTIONS TO VISIBILITY.

* THESE STATIONS ARE NOT UNDER NWS QUALITY CONTROL. THEY ALSO MAY NOT
  REPORT WEATHER SUCH AS PRECIPITATION OR FOG.

ILZ001-002-007-009-015-016-024-240200-
NORTHWEST ILLINOIS

CITY           SKY/WX    TMP DP  RH WIND       PRES   REMARKS
MOLINE         CLEAR     61  40  45 SE5       30.01R
STERLING*      CLEAR     63  33  32 CALM      30.03R
SAVANNA*       CLEAR     63  34  33 CALM      30.01S
$$

ILZ003-004-008-010-011-017-018-240200-
NORTH CENTRAL ILLINOIS

CITY           SKY/WX    TMP DP  RH WIND       PRES   REMARKS
ROCKFORD       CLOUDY    65  38  36 S3        30.03R
FREEPORT*      CLEAR     64  32  30 SW3       30.03S
ROCHELLE*      CLOUDY    65  31  27 CALM      30.03R
DE KALB*       CLEAR     62  33  33 SE6       30.04R
PERU*          CLEAR     65  29  25 SE3       30.03R
$$

ILZ005-006-012>014-019>023-240200-
NORTHEAST ILLINOIS

CITY           SKY/WX    TMP DP  RH WIND       PRES   REMARKS
CHICAGO-OHARE  PTCLDY    60  28  29 SE14      30.04R
CHICAGO-MIDWAY PTCLDY    62  27  26 E8        30.05S
AURORA         CLEAR     61  34  36 SE10      30.04R
LANSING*       CLEAR     59  30  33 E3        30.05S
JOLIET*        CLEAR     62  33  33 E7        30.04S
WAUKEGAN       CLEAR     42  32  67 NE9       30.07R
DUPAGE AIRPORT CLEAR     61  33  35 SE7       30.03R
KANKAKEE*      CLEAR     58  25  27 CALM      30.04S
WHEELING       CLEAR     47  40  76 NE7       30.06R
MORRIS*        CLEAR     60  31  33 E7        30.03R
NORTHERLY ISL    N/A     54  40  59 CALM        N/A
$$

LMZ740>746-240200-
SOUTHERN LAKE MICHIGAN

STATION/POSITION SKY/WX   TEMP    WIND        PRES    VSBY  WAVE
                          AIR SEA DIR/SP/G                  HT/PER
                          (F)     (DEG/KT/KT) (MB)    (MI)  (FT/S)
SOUTHERN BUOY              41 42   30/  8/ 10 1018.5          0
HARRISON CRIB              56     170/  7/  8   N/A
BURNHAM HARBOR             54      CALM  /  4   N/A
CALUMET HARBOR             58     100/  4/  5 1017.0F
BURNS HARBOR               54      80/  6/  6 1017.9F
MICHIGAN CITY              52      40/  3/  3   N/A
ST. JOSEPH                 52 54   50/  2/  2 1018.3R         0
$$

ILZ025>027-034>036-040-047-049-050-058-095>099-240200-
WEST-CENTRAL ILLINOIS

CITY           SKY/WX    TMP DP  RH WIND       PRES   REMARKS
QUINCY         CLEAR     65  28  24 CALM      30.02R
GALESBURG*     CLEAR     64  30  28 CALM      30.02R
MACOMB*        CLEAR     64  26  23 SE5       30.04R
JACKSONVILLE*  CLEAR     65  26  22 CALM      30.01S
PITTSFIELD*    CLEAR     66  28  24 CALM      30.03S
$$

ILZ028>032-037-038-041>044-048-051>054-059>061-240200-
CENTRAL ILLINOIS

CITY           SKY/WX    TMP DP  RH WIND       PRES   REMARKS
PONTIAC        CLEAR     60  32  35 E7        30.03S
DECATUR        CLEAR     61  29  29 NE6       30.00S
PEORIA         CLEAR     61  26  26 CALM      30.02S
LACON*         CLEAR     58  35  40 CALM      30.01S
LINCOLN*       CLEAR     62  29  28 NE3       30.01S
SPRINGFIELD    CLEAR     63  31  30 N3        30.01S
TAYLORVILLE    CLEAR     63  28  26 NE7       30.00S
$$

ILZ033-039-045-046-055>057-062-063-240200-
EAST-CENTRAL ILLINOIS

CITY           SKY/WX    TMP DP  RH WIND       PRES   REMARKS
CHAMPAIGN      CLEAR     61  28  28 NE6       30.01R
RANTOUL*       CLEAR     64  31  29 NE6       30.01R
MATTOON        CLEAR     60  28  29 NE7       29.99R
PARIS*         CLEAR     62  32  31 NE5       30.01R
$$

ILZ079-100>102-240200-
SOUTHWEST ILLINOIS

CITY           SKY/WX    TMP DP  RH WIND       PRES   REMARKS
BELLEVILLE     CLEAR     64  31  28 N6        29.97S
CAHOKIA*       CLEAR     64  30  27 N5        29.99R
SPARTA*        CLEAR     64  32  30 N3        29.98F
$$

ILZ064>066-069>071-074>076-080>082-084>086-088>090-092>094-240200-
SOUTH-CENTRAL ILLINOIS

CITY           SKY/WX    TMP DP  RH WIND       PRES   REMARKS
CARBONDALE     CLEAR     61  39  44 N7        29.95R
CAIRO*         CLEAR     63  39  42 N6        29.93S
EFFINGHAM*     CLEAR     65  32  29 N3        30.00R
MARION         CLEAR     59  39  47 CALM      29.96R
MT. VERNON     CLEAR     63  28  26 N5        29.97R
SALEM*         CLEAR     63  31  29 N7        29.97S
METROPOLIS*    CLEAR     62  39  43 N5        29.93S
$$

ILZ067-068-072-073-078-083-087-091-240200-
SOUTHEAST ILLINOIS

CITY           SKY/WX    TMP DP  RH WIND       PRES   REMARKS
LAWRENCEVILLE  CLEAR     62  35  36 N8        29.95R
FLORA*         CLEAR     64  31  28 N5        29.97R
FAIRFIELD*     CLEAR     61  36  38 CALM      29.94S
HARRISBURG*    CLEAR     62  39  42 N3        29.94S
ROBINSON*      CLEAR     62  31  32 N10       29.97R
CARMI*         CLEAR     59  40  48 N7        29.93S
$$

ABBREVIATIONS USED IN REMARKS
   TC - TEMPERATURE IN CELSIUS
  WCI - WIND CHILL INDEX
   HX - HEAT INDEX
  VSB - VISIBILITY
$$




USA.gov is the U.S. government's official web portal to all federal, state and local government web resources and services.